Tracking 33208 objects as of 14-Feb-2026
HD Live streaming from Space Station
objects crossing your sky now

STARLINK-5609

Track STARLINK-5609 now!
10-day predictions
STARLINK-5609 is classified as:


NORAD ID: 55348
Int'l Code: 2023-013T
Perigee: 565.0 km
Apogee: 567.4 km
Inclination: 43.0 °
Period: 95.8 minutes
Semi major axis: 6937 km
RCS: Unknown
Launch date: January 26, 2023
Source: United States (US)
Launch site: AIR FORCE EASTERN TEST RANGE (AFETR)
Your satellite tracking list
Your tracking list is empty




NASA's NSSDC Master Catalog

Two Line Element Set (TLE):
1 55348U 23013T   26045.11849225 -.00000227  00000-0 -16801-5 0  9997
2 55348  43.0072  68.4177 0001758 284.9150  75.1497 15.02542741168162
Source of the keplerian elements: AFSPC